Regional Weather Roundup
Issued by NWS

Home | Current Version | Previous Version | Graphics & Text | Print | Product List | Glossary On
Versions: 1 2 3 4 5 6 7 8 9 10 11 12 13 14 15 16 17 18 19 20 21 22 23 24 25 26 27 28 29 30 31 32 33 34 35 36 37 38 39 40 41 42 43 44 45 46 47 48 49 50
000
ASUS45 KCYS 281810
RWRWY

WYOMING REGIONAL WEATHER ROUNDUP
NATIONAL WEATHER SERVICE CHEYENNE WY
1200 PM MDT THU MAY 28 2015

NOTE:  "FAIR" INDICATES FEW OR NO CLOUDS BELOW 12,000 FEET
WITH NO SIGNIFICANT WEATHER AND/OR OBSTRUCTIONS TO VISIBILITY.

WYZ001-281900-
YELLOWSTONE NATIONAL PARK

CITY           SKY/WX    TMP DP  RH WIND       PRES   REMARKS
LK YELLOWSTONE   N/A     35  34  96 CALM      30.22R
6HR MIN TEMP:  33; 6HR MAX TEMP:  36; 6HR PCP:  0.32;

W YELLOWSTONE  NOT AVBL

$$
WYZ002>013-054>058-071-098>099-281900-
NORTHERN WYOMING

CITY           SKY/WX    TMP DP  RH WIND       PRES   REMARKS
JACKSON        PTSUNNY   52  43  71 SW9       30.16S
CODY           PTSUNNY   55  45  67 N13       30.09S
GREYBULL       CLOUDY    60  45  57 NW16      30.04R
6HR MIN TEMP:  52; 6HR MAX TEMP:  64;

WORLAND        LGT RAIN  59  50  72 N13       30.04S
6HR MIN TEMP:  49; 6HR MAX TEMP:  62; 6HR PCP:  0.01;

SHERIDAN       PTSUNNY   61  50  67 W6        30.04S
6HR MIN TEMP:  49; 6HR MAX TEMP:  63; 6HR PCP:  0.09;

BUFFALO        CLOUDY    55  47  74 W12       30.07S
6HR MIN TEMP:  51; 6HR MAX TEMP:  56; 6HR PCP: TRACE;

GILLETTE       FAIR      62  49  62 N10       30.01F
6HR MIN TEMP:  52; 6HR MAX TEMP:  63;

HULETT         MOCLDY    61  52  72 W6        30.02S
NEWCASTLE      FAIR      64  45  48 NW10      30.00S

$$
WYZ014>020-022>026-101>103-281900-
CENTRAL WYOMING

CITY           SKY/WX    TMP DP  RH WIND       PRES   REMARKS
BIG PINEY      HVY RAIN  40  37  89 N9        30.21R FOG     WCI  34
6HR MIN TEMP:  36; 6HR MAX TEMP:  50; 6HR PCP:  0.07;

PINEDALE       FAIR      46  36  66 NW10      30.19S THUNDER
DUBOIS         MOCLDY    45  32  61 W17       30.14R
LANDER         FAIR      60  41  49 E5        30.05F
6HR MIN TEMP:  46; 6HR MAX TEMP:  61;

RIVERTON       FAIR      61  42  49 W7        30.06F
6HR MIN TEMP:  47; 6HR MAX TEMP:  62;

CASPER         FAIR      63  47  55 SW8       30.03F
6HR MIN TEMP:  47; 6HR MAX TEMP:  65; 6HR PCP:  0.01;

DOUGLAS        FAIR      66  46  48 NW15      30.02F
6HR MIN TEMP:  46; 6HR MAX TEMP:  66;


$$
WYZ021-027>030-104>119-281900-
SOUTHERN WYOMING

CITY           SKY/WX    TMP DP  RH WIND       PRES   REMARKS
EVANSTON       PTSUNNY   54  40  59 SW21G28   30.18F
6HR MIN TEMP:  38; 6HR MAX TEMP:  54; 6HR PCP:  0.14;

KEMMERER       LGT RAIN  45  37  76 NW7       30.20S
FORT BRIDGER   CLEAR     57  41  54 W14G22    30.20F THUNDER
ROCK SPRINGS   CLOUDY    53  41  63 W17G24    30.17F
6HR MIN TEMP:  43; 6HR MAX TEMP:  55;

RAWLINS        PTSUNNY   58  37  45 W13G21    30.14F
6HR MIN TEMP:  46; 6HR MAX TEMP:  59; 6HR PCP:  0.01;

SARATOGA       FAIR      57  41  54 SW13      30.17F
LARAMIE        PTSUNNY   56  37  49 W16       30.14R
6HR MIN TEMP:  45; 6HR MAX TEMP:  58;

CHEYENNE       FAIR      65  36  34 W20G26    30.08S
6HR MIN TEMP:  47; 6HR MAX TEMP:  68;

TORRINGTON     FAIR      72  47  40 W10G17    29.98F
6HR MIN TEMP:  50; 6HR MAX TEMP:  72;

PINE BLUFFS    FAIR      70  43  37 NW7       30.04S

$$



USA.gov is the U.S. government's official web portal to all federal, state and local government web resources and services.